K5DLF-13 Weather Reports


time (UTC)temp
C
wind
direction
speed
KPH
gust
KPH
rain 1hr
cm
rain 24hr
cm
rain mn
cm
humidity
%
barometer
mb
20260505152957 26 198 3.2 6.4 0.00 0.00 0.00 84 1007.1
20260505152457 27 198 3.2 6.4 0.00 0.00 0.00 83 1007.0
20260505151957 27 198 3.2 8.0 0.00 0.00 0.00 84 1007.0
20260505151457 26 194 3.2 6.4 0.00 0.00 0.00 85 1006.9
20260505150957 26 192 3.2 8.0 0.00 0.00 0.00 86 1007.1
20260505150457 26 201 3.2 9.7 0.00 0.00 0.00 88 1006.9
20260505140457 24 169 1.6 6.4 0.00 0.00 0.00 91 1007.1
20260505124958 23 163 0.0 0.0 0.00 0.00 0.00 93 1006.8
20260505124458 23 163 0.0 0.0 0.00 0.00 0.00 93 1006.7
20260505123958 23 163 0.0 0.0 0.00 0.00 0.00 93 1006.6
20260505123458 23 163 0.0 0.0 0.00 0.00 0.00 93 1006.5
20260505122958 23 163 0.0 0.0 0.00 0.00 0.00 93 1006.3
20260505122458 23 163 0.0 0.0 0.00 0.00 0.00 94 1006.4
20260505121958 22 163 0.0 0.0 0.00 0.00 0.00 94 1006.5
20260505121458 22 163 0.0 0.0 0.00 0.00 0.00 94 1006.5
20260505120958 22 163 0.0 0.0 0.00 0.00 0.00 94 1006.6
20260505120458 22 163 0.0 0.0 0.00 0.00 0.00 94 1006.6
20260505115958 22 163 0.0 0.0 0.00 0.00 0.00 93 1006.6
20260505115458 22 163 0.0 8.0 0.00 0.00 0.00 93 1006.5
20260505114958 22 161 0.0 0.0 0.00 0.00 0.00 93 1006.6
20260505114458 22 161 0.0 0.0 0.00 0.00 0.00 93 1006.5
20260505113958 22 161 0.0 0.0 0.00 0.00 0.00 93 1006.4
20260505113458 22 161 0.0 0.0 0.00 0.00 0.00 93 1006.3
20260505112958 22 161 0.0 0.0 0.00 0.00 0.00 93 1006.3
20260505112458 22 161 0.0 0.0 0.00 0.00 0.00 93 1006.5
20260505111958 22 161 0.0 0.0 0.00 0.00 0.00 93 1006.7
20260505111458 22 161 0.0 0.0 0.00 0.00 0.00 93 1006.7
20260505110958 22 161 0.0 0.0 0.00 0.00 0.00 93 1006.7
20260505110458 22 161 0.0 0.0 0.00 0.00 0.00 93 1006.7
20260505101958 22 161 0.0 0.0 0.00 0.00 0.00 92 1006.5
20260505101458 22 161 0.0 0.0 0.00 0.00 0.00 92 1006.5
20260505100958 22 161 0.0 0.0 0.00 0.00 0.00 92 1006.3
20260505100458 22 161 0.0 0.0 0.00 0.00 0.00 92 1006.3
20260505095958 22 161 0.0 0.0 0.00 0.00 0.00 92 1006.3
20260505095458 22 161 0.0 0.0 0.00 0.00 0.00 92 1006.3
20260505094958 22 161 0.0 0.0 0.00 0.00 0.00 92 1006.4
20260505094458 22 161 0.0 0.0 0.00 0.00 0.00 92 1006.6
20260505093958 22 161 0.0 0.0 0.00 0.00 0.00 92 1006.7
20260505093458 22 161 0.0 1.6 0.00 0.00 0.00 92 1006.8
20260505092958 22 161 0.0 3.2 0.00 0.00 0.00 92 1006.8
20260505092458 22 161 0.0 1.6 0.00 0.00 0.00 92 1006.7
20260505091958 22 161 0.0 1.6 0.00 0.00 0.00 92 1006.6
20260505091458 22 161 0.0 1.6 0.00 0.00 0.00 91 1006.6
20260505090958 22 161 0.0 3.2 0.00 0.00 0.00 91 1006.7
20260505090458 22 161 0.0 6.4 0.00 0.00 0.00 91 1006.9
20260505085958 22 161 0.0 3.2 0.00 0.00 0.00 91 1006.8
20260505085458 22 161 0.0 6.4 0.00 0.00 0.00 91 1006.7
20260505084958 22 160 0.0 0.0 0.00 0.00 0.00 91 1006.7
20260505084458 22 160 0.0 0.0 0.00 0.00 0.00 90 1006.6
20260505083958 22 160 0.0 0.0 0.00 0.00 0.00 90 1006.6
20260505083458 22 160 0.0 3.2 0.00 0.00 0.00 91 1006.6
20260505082958 22 159 1.6 6.4 0.00 0.00 0.00 91 1006.7
20260505082458 22 159 0.0 6.4 0.00 0.00 0.00 91 1006.8
20260505081958 22 159 0.0 0.0 0.00 0.00 0.00 91 1006.8
20260505081458 22 159 0.0 0.0 0.00 0.00 0.00 91 1006.8
20260505080958 22 159 0.0 0.0 0.00 0.00 0.00 91 1007.0
20260505080458 22 159 0.0 0.0 0.00 0.00 0.00 91 1007.0
20260505075958 22 159 0.0 0.0 0.00 0.00 0.00 92 1007.1
20260505075458 22 159 0.0 0.0 0.00 0.00 0.00 91 1007.1
20260505074958 22 159 0.0 0.0 0.00 0.00 0.00 91 1007.1
20260505074458 22 158 0.0 0.0 0.00 0.00 0.00 91 1007.1
20260505073958 22 158 0.0 3.2 0.00 0.00 0.00 92 1006.9
20260505073458 22 158 0.0 4.8 0.00 0.00 0.00 92 1007.1
20260505072958 22 156 0.0 3.2 0.00 0.00 0.00 92 1007.1
20260505072458 22 156 0.0 4.8 0.00 0.00 0.00 92 1007.2
20260505071958 21 156 0.0 3.2 0.00 0.00 0.00 92 1007.3
20260505071458 21 154 0.0 0.0 0.00 0.00 0.00 92 1007.3
20260505070958 21 154 0.0 0.0 0.00 0.00 0.00 93 1007.3
20260505070458 21 154 0.0 0.0 0.00 0.00 0.00 93 1007.3
20260505065958 21 154 0.0 0.0 0.00 0.00 0.00 93 1007.4
20260505065458 21 154 0.0 0.0 0.00 0.00 0.00 93 1007.6
20260505064958 21 154 0.0 0.0 0.00 0.00 0.00 93 1007.7
20260505064458 21 154 0.0 0.0 0.00 0.00 0.00 93 1007.8
20260505063958 21 154 0.0 0.0 0.00 0.00 0.00 93 1007.9
20260505063458 21 154 0.0 0.0 0.00 0.00 0.00 93 1008.0
20260505062958 21 154 0.0 0.0 0.00 0.00 0.00 93 1008.1
20260505062458 21 154 0.0 0.0 0.00 0.00 0.00 93 1008.2
20260505061958 21 154 0.0 0.0 0.00 0.00 0.00 93 1007.9
20260505061458 20 154 0.0 0.0 0.00 0.00 0.00 92 1008.1
20260505060958 20 154 0.0 0.0 0.00 0.00 0.00 92 1008.2
20260505060458 20 154 0.0 0.0 0.00 0.00 0.00 92 1008.2
20260505055958 20 154 0.0 0.0 0.00 0.00 0.00 92 1008.1
20260505055458 20 154 0.0 0.0 0.00 0.00 0.00 92 1008.3
20260505054958 20 154 0.0 0.0 0.00 0.00 0.00 91 1008.3
20260505054458 20 154 0.0 0.0 0.00 0.00 0.00 91 1008.3
20260505053958 20 154 0.0 0.0 0.00 0.00 0.00 91 1008.3
20260505053458 20 154 0.0 0.0 0.00 0.00 0.00 91 1008.3
20260505052958 20 154 0.0 0.0 0.00 0.00 0.00 91 1008.3
20260505052458 20 154 0.0 0.0 0.00 0.00 0.00 91 1008.3
20260505051958 20 154 0.0 0.0 0.00 0.00 0.00 91 1008.4
20260505051458 20 154 0.0 0.0 0.00 0.00 0.00 91 1008.4
20260505050958 20 154 0.0 0.0 0.00 0.00 0.00 91 1008.3
20260505050458 20 154 0.0 0.0 0.00 0.00 0.00 91 1008.3
20260505041458 20 154 0.0 0.0 0.00 0.00 0.00 90 1008.8
20260505040958 20 154 0.0 0.0 0.00 0.00 0.00 89 1008.6
20260505040458 20 154 0.0 0.0 0.00 0.00 0.00 89 1008.8
20260505035958 20 154 0.0 0.0 0.00 0.00 0.00 89 1008.9
20260505035459 20 154 0.0 0.0 0.00 0.00 0.00 89 1008.9
20260505034959 20 154 0.0 0.0 0.00 0.00 0.00 88 1008.9
20260505034458 20 154 0.0 0.0 0.00 0.00 0.00 88 1009.0
20260505033959 21 154 0.0 0.0 0.00 0.00 0.00 88 1009.0
20260505033459 21 154 0.0 0.0 0.00 0.00 0.00 87 1009.0
20260505032959 21 154 0.0 0.0 0.00 0.00 0.00 87 1009.0
20260505032459 21 154 0.0 0.0 0.00 0.00 0.00 87 1009.0
20260505031959 21 154 0.0 0.0 0.00 0.00 0.00 87 1008.9
20260505031459 21 154 0.0 0.0 0.00 0.00 0.00 86 1009.0
20260505030959 21 154 0.0 0.0 0.00 0.00 0.00 86 1009.1
20260505030459 21 154 0.0 0.0 0.00 0.00 0.00 86 1009.0
20260505025959 21 154 0.0 0.0 0.00 0.00 0.00 86 1009.1
20260505025459 21 154 0.0 0.0 0.00 0.00 0.00 86 1009.1
20260505024959 21 154 0.0 0.0 0.00 0.00 0.00 85 1009.0
20260505024459 21 154 0.0 0.0 0.00 0.00 0.00 85 1009.0
20260505023959 21 154 0.0 0.0 0.00 0.00 0.00 85 1008.8
20260505023459 21 154 0.0 0.0 0.00 0.00 0.00 85 1008.9
20260505022959 21 154 0.0 0.0 0.00 0.00 0.00 84 1009.1
20260505022459 21 154 0.0 0.0 0.00 0.00 0.00 84 1008.9
20260505021959 22 154 0.0 0.0 0.00 0.00 0.00 84 1008.9
20260505021459 22 154 0.0 0.0 0.00 0.00 0.00 83 1008.9
20260505020959 22 154 0.0 0.0 0.00 0.00 0.00 83 1008.9
20260505020459 22 154 0.0 0.0 0.00 0.00 0.00 83 1008.8
20260505015959 22 154 0.0 0.0 0.00 0.00 0.00 83 1008.8
20260505015459 22 154 0.0 0.0 0.00 0.00 0.00 82 1008.7
20260505014959 22 154 0.0 0.0 0.00 0.00 0.00 82 1008.7
20260505014459 22 154 0.0 0.0 0.00 0.00 0.00 82 1008.6
20260505013959 22 154 0.0 0.0 0.00 0.00 0.00 82 1008.6
20260505013459 22 154 0.0 0.0 0.00 0.00 0.00 81 1008.7
20260505012959 22 154 0.0 0.0 0.00 0.00 0.00 81 1008.7
20260505012459 22 154 0.0 0.0 0.00 0.00 0.00 81 1008.9
20260505011959 22 154 0.0 0.0 0.00 0.00 0.00 81 1008.7
20260505011459 22 154 0.0 0.0 0.00 0.00 0.00 81 1008.7
20260505010959 22 154 0.0 0.0 0.00 0.00 0.00 81 1008.4
20260505010459 22 154 1.6 1.6 0.00 0.00 0.00 80 1008.7
20260505005959 22 154 1.6 4.8 0.00 0.00 0.00 80 1008.5
20260505005459 22 154 0.0 3.2 0.00 0.00 0.00 80 1008.5
20260505004959 23 154 0.0 0.0 0.00 0.00 0.00 80 1008.5
20260505004459 23 154 0.0 3.2 0.00 0.00 0.00 79 1008.4
20260505003959 23 154 1.6 3.2 0.00 0.00 0.00 79 1008.3
20260505003459 23 154 1.6 6.4 0.00 0.00 0.00 78 1008.3
20260505002959 23 154 3.2 6.4 0.00 0.00 0.00 78 1008.4
20260505002459 23 154 3.2 6.4 0.00 0.00 0.00 77 1008.3
20260505001959 23 154 1.6 4.8 0.00 0.00 0.00 77 1008.4
20260505001459 23 154 1.6 4.8 0.00 0.00 0.00 76 1008.4
20260505000959 23 154 3.2 6.4 0.00 0.00 0.00 76 1008.5
20260505000459 24 154 4.8 9.7 0.00 0.00 0.00 75 1008.6
20260504235959 24 154 4.8 11.3 0.00 0.00 0.00 75 1008.7
20260504235459 24 153 4.8 11.3 0.00 0.00 0.00 75 1008.7
20260504234959 24 136 3.2 11.3 0.00 0.00 0.00 74 1008.6
20260504234459 24 152 4.8 8.0 0.00 0.00 0.00 75 1008.6
20260504233959 24 152 4.8 8.0 0.00 0.00 0.00 74 1008.7
20260504233459 25 152 4.8 12.9 0.00 0.00 0.00 74 1008.7
20260504232959 25 204 4.8 9.7 0.00 0.00 0.00 74 1008.9
20260504232459 25 141 4.8 11.3 0.00 0.00 0.00 74 1008.9
20260504231959 25 136 4.8 9.7 0.00 0.00 0.00 74 1009.0
20260504231459 25 168 4.8 11.3 0.00 0.00 0.00 73 1009.0
20260504230959 25 171 3.2 8.0 0.00 0.00 0.00 74 1009.0
20260504230459 25 171 3.2 6.4 0.00 0.00 0.00 74 1009.2
20260504225959 25 171 4.8 9.7 0.00 0.00 0.00 74 1009.3
20260504225459 25 173 3.2 9.7 0.00 0.00 0.00 72 1009.2
20260504224959 25 209 3.2 8.0 0.00 0.00 0.00 74 1009.3
20260504224459 25 211 3.2 8.0 0.00 0.00 0.00 73 1009.2
20260504223959 25 211 3.2 8.0 0.00 0.00 0.00 73 1009.3
20260504223459 25 213 3.2 6.4 0.00 0.00 0.00 74 1009.4
20260504222959 25 217 1.6 6.4 0.00 0.00 0.00 74 1009.5
20260504222459 24 217 1.6 6.4 0.00 0.00 0.00 74 1009.6
20260504221959 24 193 3.2 8.0 0.00 0.00 0.00 74 1009.8
20260504221459 24 190 3.2 6.4 0.00 0.00 0.00 74 1009.6
20260504220959 25 189 1.6 4.8 0.00 0.00 0.00 75 1009.7
20260504220459 24 189 1.6 6.4 0.00 0.00 0.00 74 1009.8
20260504215959 25 189 3.2 6.4 0.00 0.00 0.00 73 1009.8
20260504215459 25 190 1.6 6.4 0.00 0.00 0.00 73 1009.8
20260504214959 25 190 1.6 6.4 0.00 0.00 0.00 74 1009.9
20260504214459 25 190 3.2 4.8 0.00 0.00 0.00 73 1009.9
20260504213959 25 190 3.2 8.0 0.00 0.00 0.00 71 1010.0
20260504213459 25 192 3.2 6.4 0.00 0.00 0.00 71 1010.2
20260504212959 25 199 1.6 8.0 0.00 0.00 0.00 71 1010.1
20260504212459 26 157 3.2 8.0 0.00 0.00 0.00 71 1010.0
20260504211959 26 147 4.8 8.0 0.00 0.00 0.00 71 1010.1
20260504211459 26 148 3.2 8.0 0.00 0.00 0.00 70 1010.1
20260504210959 26 148 3.2 6.4 0.00 0.00 0.00 70 1010.3
20260504210459 26 148 3.2 6.4 0.00 0.00 0.00 71 1010.4
20260504205959 26 148 3.2 8.0 0.00 0.00 0.00 69 1010.4
20260504205459 26 147 3.2 8.0 0.00 0.00 0.00 70 1010.3
20260504204959 26 147 4.8 6.4 0.00 0.00 0.00 72 1010.3
20260504204459 26 147 3.2 6.4 0.00 0.00 0.00 69 1010.5
20260504203959 26 147 3.2 6.4 0.00 0.00 0.00 69 1010.5
20260504203459 26 142 3.2 8.0 0.00 0.00 0.00 68 1010.6
20260504202959 26 142 3.2 6.4 0.00 0.00 0.00 69 1010.6
20260504202459 26 141 3.2 12.9 0.00 0.00 0.00 69 1010.5
20260504201959 26 150 3.2 6.4 0.00 0.00 0.00 68 1010.7
20260504201459 26 150 3.2 4.8 0.00 0.00 0.00 69 1010.8
20260504200959 26 141 4.8 8.0 0.00 0.00 0.00 66 1010.8
20260504200459 27 140 4.8 8.0 0.00 0.00 0.00 67 1010.8
20260504195959 27 141 4.8 8.0 0.00 0.00 0.00 67 1010.8
20260504195459 27 141 4.8 8.0 0.00 0.00 0.00 64 1010.9
20260504194959 27 140 4.8 8.0 0.00 0.00 0.00 68 1010.8
20260504194459 27 140 3.2 8.0 0.00 0.00 0.00 65 1011.1
20260504193959 27 140 3.2 8.0 0.00 0.00 0.00 65 1011.1
20260504193459 27 139 4.8 8.0 0.00 0.00 0.00 65 1011.4
20260504192959 27 137 3.2 8.0 0.00 0.00 0.00 67 1011.4
20260504192459 27 138 4.8 6.4 0.00 0.00 0.00 63 1011.3
20260504191959 27 138 4.8 11.3 0.00 0.00 0.00 65 1011.4
20260504191459 27 214 4.8 8.0 0.00 0.00 0.00 65 1011.3
20260504190959 27 146 4.8 8.0 0.00 0.00 0.00 65 1011.3
20260504190459 27 146 4.8 9.7 0.00 0.00 0.00 67 1011.5
20260504185959 27 147 4.8 12.9 0.00 0.00 0.00 65 1011.5
20260504185459 27 149 4.8 8.0 0.00 0.00 0.00 65 1011.5
20260504184959 27 147 6.4 12.9 0.00 0.00 0.00 63 1011.6
20260504184459 27 148 4.8 14.5 0.00 0.00 0.00 66 1011.5
20260504183959 27 149 4.8 9.7 0.00 0.00 0.00 65 1011.5
20260504183459 27 148 4.8 12.9 0.00 0.00 0.00 64 1011.6
20260504182959 27 148 6.4 11.3 0.00 0.00 0.00 65 1011.6
20260504182459 27 167 4.8 12.9 0.00 0.00 0.00 66 1011.8
20260504181959 27 174 4.8 14.5 0.00 0.00 0.00 67 1011.8
20260504181459 27 189 3.2 6.4 0.00 0.00 0.00 68 1012.0
20260504180959 27 189 4.8 11.3 0.00 0.00 0.00 65 1012.0
20260504180459 27 140 6.4 12.9 0.00 0.00 0.00 66 1012.1
20260504175959 27 171 6.4 9.7 0.00 0.00 0.00 66 1012.1
20260504175500 27 173 4.8 11.3 0.00 0.00 0.00 65 1012.2
20260504175000 27 162 4.8 12.9 0.00 0.00 0.00 66 1012.2
20260504174500 27 166 4.8 9.7 0.00 0.00 0.00 66 1012.3
20260504174000 26 167 4.8 11.3 0.00 0.00 0.00 67 1012.2
20260504173500 27 184 4.8 12.9 0.00 0.00 0.00 64 1012.5
20260504173000 27 209 3.2 6.4 0.00 0.00 0.00 64 1012.7
20260504172500 27 207 4.8 8.0 0.00 0.00 0.00 66 1012.6
20260504172000 27 148 4.8 12.9 0.00 0.00 0.00 66 1012.7
20260504171500 27 148 4.8 9.7 0.00 0.00 0.00 64 1012.7
20260504171000 26 148 4.8 16.1 0.00 0.00 0.00 65 1012.8
20260504170500 27 149 4.8 8.0 0.00 0.00 0.00 67 1012.7